iso_date,epoch_date,Year,Hour,Min,DOY,POS_DOY,Lat,Lon,BP,Ts,Ta,has_bp,has_ts,has_ta,BuoyID,Buoy_Type,Buoy_Owner,Logistics,Hemisphere
2018-08-03T21:00:00Z,1533330000,2018,21,0,215.875,215.875,69.094,-24.4418,1012.4,3.87,-999.0,yes,yes,no,300234065580640,BD2GI,AOML,DNR,North
2018-08-03T22:00:28Z,1533333629,2018,22,0,215.917,215.917,69.0984,-24.4528,1012.4,3.87,-999.0,yes,yes,no,300234065580640,BD2GI,AOML,DNR,North
2018-08-03T22:59:31Z,1533337171,2018,23,0,215.958,215.958,69.1048,-24.4668,1012.5,3.83,-999.0,yes,yes,no,300234065580640,BD2GI,AOML,DNR,North
2018-08-04T00:00:00Z,1533340800,2018,0,0,216.0,216.0,69.1124,-24.4828,1012.8,3.83,-999.0,yes,yes,no,300234065580640,BD2GI,AOML,DNR,North
2018-08-04T01:00:28Z,1533344429,2018,1,0,216.042,216.042,69.1216,-24.5004,1012.8,3.83,-999.0,yes,yes,no,300234065580640,BD2GI,AOML,DNR,North
2018-08-04T01:59:31Z,1533347971,2018,2,0,216.083,216.083,69.1314,-24.5138,1012.6,3.8,-999.0,yes,yes,no,300234065580640,BD2GI,AOML,DNR,North
2018-08-04T03:00:00Z,1533351600,2018,3,0,216.125,216.125,69.1436,-24.5322,1012.3,3.8,-999.0,yes,yes,no,300234065580640,BD2GI,AOML,DNR,North
2018-08-04T04:00:28Z,1533355229,2018,4,0,216.167,216.167,69.1556,-24.5474,1012.2,3.94,-999.0,yes,yes,no,300234065580640,BD2GI,AOML,DNR,North
2018-08-04T04:59:31Z,1533358771,2018,5,0,216.208,216.208,69.1646,-24.5588,1012.3,4.11,-999.0,yes,yes,no,300234065580640,BD2GI,AOML,DNR,North
2018-08-04T06:00:00Z,1533362400,2018,6,0,216.25,216.25,69.1702,-24.5672,1012.4,4.04,-999.0,yes,yes,no,300234065580640,BD2GI,AOML,DNR,North
2018-08-04T07:00:28Z,1533366029,2018,7,0,216.292,216.292,69.1716,-24.5754,1012.7,4.01,-999.0,yes,yes,no,300234065580640,BD2GI,AOML,DNR,North
2018-08-04T07:59:31Z,1533369571,2018,8,0,216.333,216.333,69.17,-24.5838,1013.0,4.01,-999.0,yes,yes,no,300234065580640,BD2GI,AOML,DNR,North
2018-08-04T09:00:00Z,1533373200,2018,9,0,216.375,216.375,69.1674,-24.5936,1013.3,4.04,-999.0,yes,yes,no,300234065580640,BD2GI,AOML,DNR,North
2018-08-04T10:00:28Z,1533376829,2018,10,0,216.417,216.417,69.1634,-24.6038,1013.4,4.07,-999.0,yes,yes,no,300234065580640,BD2GI,AOML,DNR,North
2018-08-04T10:59:31Z,1533380371,2018,11,0,216.458,216.458,69.1604,-24.6148,1013.7,4.11,-999.0,yes,yes,no,300234065580640,BD2GI,AOML,DNR,North
2018-08-04T12:00:00Z,1533384000,2018,12,0,216.5,216.5,69.1594,-24.627,1013.8,4.14,-999.0,yes,yes,no,300234065580640,BD2GI,AOML,DNR,North
2018-08-04T13:00:28Z,1533387629,2018,13,0,216.542,216.542,69.1606,-24.6332,1013.7,4.18,-999.0,yes,yes,no,300234065580640,BD2GI,AOML,DNR,North
2018-08-04T13:59:31Z,1533391171,2018,14,0,216.583,216.583,69.1624,-24.6378,1013.9,4.18,-999.0,yes,yes,no,300234065580640,BD2GI,AOML,DNR,North
2018-08-04T15:00:00Z,1533394800,2018,15,0,216.625,216.625,69.164,-24.6406,1013.6,4.25,-999.0,yes,yes,no,300234065580640,BD2GI,AOML,DNR,North
2018-08-04T16:00:28Z,1533398429,2018,16,0,216.667,216.667,69.1658,-24.6444,1013.5,4.31,-999.0,yes,yes,no,300234065580640,BD2GI,AOML,DNR,North
2018-08-04T16:59:31Z,1533401971,2018,17,0,216.708,216.708,69.1678,-24.6512,1013.6,4.31,-999.0,yes,yes,no,300234065580640,BD2GI,AOML,DNR,North
2018-08-04T18:00:00Z,1533405600,2018,18,0,216.75,216.75,69.1688,-24.661,1013.6,4.48,-999.0,yes,yes,no,300234065580640,BD2GI,AOML,DNR,North
2018-08-04T19:00:28Z,1533409229,2018,19,0,216.792,216.792,69.1686,-24.6712,1013.7,4.93,-999.0,yes,yes,no,300234065580640,BD2GI,AOML,DNR,North
2018-08-04T19:59:31Z,1533412771,2018,20,0,216.833,216.833,69.167,-24.68,1014.0,4.83,-999.0,yes,yes,no,300234065580640,BD2GI,AOML,DNR,North
2018-08-04T21:00:00Z,1533416400,2018,21,0,216.875,216.875,69.1644,-24.6902,1014.2,4.83,-999.0,yes,yes,no,300234065580640,BD2GI,AOML,DNR,North
2018-08-04T22:00:28Z,1533420029,2018,22,0,216.917,216.917,69.1618,-24.6992,1014.3,4.76,-999.0,yes,yes,no,300234065580640,BD2GI,AOML,DNR,North
2018-08-04T22:59:31Z,1533423571,2018,23,0,216.958,216.958,69.1598,-24.7094,1014.4,4.86,-999.0,yes,yes,no,300234065580640,BD2GI,AOML,DNR,North
2018-08-05T00:00:00Z,1533427200,2018,0,0,217.0,217.0,69.1588,-24.7128,1014.4,4.72,-999.0,yes,yes,no,300234065580640,BD2GI,AOML,DNR,North
2018-08-05T01:00:28Z,1533430829,2018,1,0,217.042,217.042,69.1578,-24.7134,1014.3,4.66,-999.0,yes,yes,no,300234065580640,BD2GI,AOML,DNR,North
2018-08-05T01:59:31Z,1533434371,2018,2,0,217.083,217.083,69.1574,-24.7124,1014.3,4.69,-999.0,yes,yes,no,300234065580640,BD2GI,AOML,DNR,North
2018-08-05T03:00:00Z,1533438000,2018,3,0,217.125,217.125,69.1566,-24.7126,1014.2,4.72,-999.0,yes,yes,no,300234065580640,BD2GI,AOML,DNR,North
2018-08-05T04:00:28Z,1533441629,2018,4,0,217.167,217.167,69.158,-24.7132,1014.0,4.72,-999.0,yes,yes,no,300234065580640,BD2GI,AOML,DNR,North
2018-08-05T04:59:31Z,1533445171,2018,5,0,217.208,217.208,69.1592,-24.7134,1014.0,4.69,-999.0,yes,yes,no,300234065580640,BD2GI,AOML,DNR,North
2018-08-05T06:00:00Z,1533448800,2018,6,0,217.25,217.25,69.161,-24.7176,1014.2,4.72,-999.0,yes,yes,no,300234065580640,BD2GI,AOML,DNR,North
2018-08-05T07:00:28Z,1533452429,2018,7,0,217.292,217.292,69.1608,-24.7202,1014.2,4.72,-999.0,yes,yes,no,300234065580640,BD2GI,AOML,DNR,North
2018-08-05T07:59:31Z,1533455971,2018,8,0,217.333,217.333,69.1602,-24.7248,1014.4,4.76,-999.0,yes,yes,no,300234065580640,BD2GI,AOML,DNR,North
2018-08-05T09:00:00Z,1533459600,2018,9,0,217.375,217.375,69.1584,-24.727,1014.4,4.79,-999.0,yes,yes,no,300234065580640,BD2GI,AOML,DNR,North
2018-08-05T10:00:28Z,1533463229,2018,10,0,217.417,217.417,69.1564,-24.7298,1014.8,4.83,-999.0,yes,yes,no,300234065580640,BD2GI,AOML,DNR,North
2018-08-05T10:59:31Z,1533466771,2018,11,0,217.458,217.458,69.1542,-24.7304,1015.5,4.93,-999.0,yes,yes,no,300234065580640,BD2GI,AOML,DNR,North
2018-08-05T12:00:00Z,1533470400,2018,12,0,217.5,217.5,69.1512,-24.7264,1015.9,5.17,-999.0,yes,yes,no,300234065580640,BD2GI,AOML,DNR,North
2018-08-05T13:00:28Z,1533474029,2018,13,0,217.542,217.542,69.1468,-24.7242,1016.4,5.07,-999.0,yes,yes,no,300234065580640,BD2GI,AOML,DNR,North
2018-08-05T13:59:31Z,1533477571,2018,14,0,217.583,217.583,69.142,-24.7268,1016.5,5.07,-999.0,yes,yes,no,300234065580640,BD2GI,AOML,DNR,North
2018-08-05T15:00:00Z,1533481200,2018,15,0,217.625,217.625,69.1398,-24.7348,1016.7,5.1,-999.0,yes,yes,no,300234065580640,BD2GI,AOML,DNR,North
2018-08-05T16:00:28Z,1533484829,2018,16,0,217.667,217.667,69.139,-24.7384,1016.6,5.17,-999.0,yes,yes,no,300234065580640,BD2GI,AOML,DNR,North
2018-08-05T16:59:31Z,1533488371,2018,17,0,217.708,217.708,69.1368,-24.7392,1016.5,5.1,-999.0,yes,yes,no,300234065580640,BD2GI,AOML,DNR,North
2018-08-05T18:00:00Z,1533492000,2018,18,0,217.75,217.75,69.1322,-24.7408,1016.4,5.07,-999.0,yes,yes,no,300234065580640,BD2GI,AOML,DNR,North
2018-08-05T19:00:28Z,1533495629,2018,19,0,217.792,217.792,69.1274,-24.748,1016.5,5.1,-999.0,yes,yes,no,300234065580640,BD2GI,AOML,DNR,North
2018-08-05T19:59:31Z,1533499171,2018,20,0,217.833,217.833,69.1236,-24.7542,1016.7,4.93,-999.0,yes,yes,no,300234065580640,BD2GI,AOML,DNR,North
2018-08-05T21:00:00Z,1533502800,2018,21,0,217.875,217.875,69.1194,-24.7572,1016.6,4.96,-999.0,yes,yes,no,300234065580640,BD2GI,AOML,DNR,North
2018-08-05T22:00:28Z,1533506429,2018,22,0,217.917,217.917,69.115,-24.757,1016.9,5.03,-999.0,yes,yes,no,300234065580640,BD2GI,AOML,DNR,North
2018-08-05T22:59:31Z,1533509971,2018,23,0,217.958,217.958,69.11,-24.7554,1016.9,5.03,-999.0,yes,yes,no,300234065580640,BD2GI,AOML,DNR,North
2018-08-06T00:00:00Z,1533513600,2018,0,0,218.0,218.0,69.1078,-24.7566,1017.2,4.93,-999.0,yes,yes,no,300234065580640,BD2GI,AOML,DNR,North
2018-08-06T01:00:28Z,1533517229,2018,1,0,218.042,218.042,69.1014,-24.7426,1017.1,4.93,-999.0,yes,yes,no,300234065580640,BD2GI,AOML,DNR,North
2018-08-06T01:59:31Z,1533520771,2018,2,0,218.083,218.083,69.0984,-24.7334,1016.8,4.89,-999.0,yes,yes,no,300234065580640,BD2GI,AOML,DNR,North
2018-08-06T03:00:00Z,1533524400,2018,3,0,218.125,218.125,69.0962,-24.7222,1016.8,4.86,-999.0,yes,yes,no,300234065580640,BD2GI,AOML,DNR,North
2018-08-06T04:00:28Z,1533528029,2018,4,0,218.167,218.167,69.0932,-24.7128,1016.8,4.69,-999.0,yes,yes,no,300234065580640,BD2GI,AOML,DNR,North
2018-08-06T04:59:31Z,1533531571,2018,5,0,218.208,218.208,69.0924,-24.7034,1017.1,4.59,-999.0,yes,yes,no,300234065580640,BD2GI,AOML,DNR,North
2018-08-06T06:00:00Z,1533535200,2018,6,0,218.25,218.25,69.09,-24.6918,1017.2,4.55,-999.0,yes,yes,no,300234065580640,BD2GI,AOML,DNR,North
2018-08-06T07:00:28Z,1533538829,2018,7,0,218.292,218.292,69.0882,-24.6848,1017.1,4.42,-999.0,yes,yes,no,300234065580640,BD2GI,AOML,DNR,North
2018-08-06T07:59:31Z,1533542371,2018,8,0,218.333,218.333,69.0864,-24.6764,1017.0,4.25,-999.0,yes,yes,no,300234065580640,BD2GI,AOML,DNR,North
2018-08-06T09:00:00Z,1533546000,2018,9,0,218.375,218.375,69.0846,-24.6658,1017.2,4.59,-999.0,yes,yes,no,300234065580640,BD2GI,AOML,DNR,North
2018-08-06T10:00:28Z,1533549629,2018,10,0,218.417,218.417,69.0832,-24.6542,1017.2,4.42,-999.0,yes,yes,no,300234065580640,BD2GI,AOML,DNR,North
2018-08-06T10:59:31Z,1533553171,2018,11,0,218.458,218.458,69.081,-24.6396,1017.4,4.45,-999.0,yes,yes,no,300234065580640,BD2GI,AOML,DNR,North
2018-08-06T12:00:00Z,1533556800,2018,12,0,218.5,218.5,69.0782,-24.624,1017.5,4.28,-999.0,yes,yes,no,300234065580640,BD2GI,AOML,DNR,North
2018-08-06T13:00:28Z,1533560429,2018,13,0,218.542,218.542,69.0758,-24.6084,1017.6,4.42,-999.0,yes,yes,no,300234065580640,BD2GI,AOML,DNR,North
2018-08-06T13:59:31Z,1533563971,2018,14,0,218.583,218.583,69.0728,-24.5902,1017.5,4.38,-999.0,yes,yes,no,300234065580640,BD2GI,AOML,DNR,North
2018-08-06T15:00:00Z,1533567600,2018,15,0,218.625,218.625,69.0708,-24.575,1017.4,4.66,-999.0,yes,yes,no,300234065580640,BD2GI,AOML,DNR,North
2018-08-06T16:00:28Z,1533571229,2018,16,0,218.667,218.667,69.07,-24.5616,1017.2,4.76,-999.0,yes,yes,no,300234065580640,BD2GI,AOML,DNR,North
2018-08-06T16:59:31Z,1533574771,2018,17,0,218.708,218.708,69.0726,-24.5532,1017.0,4.72,-999.0,yes,yes,no,300234065580640,BD2GI,AOML,DNR,North
2018-08-06T18:00:00Z,1533578400,2018,18,0,218.75,218.75,69.077,-24.5418,1016.8,4.59,-999.0,yes,yes,no,300234065580640,BD2GI,AOML,DNR,North
2018-08-06T19:00:28Z,1533582029,2018,19,0,218.792,218.792,69.0818,-24.5316,1017.0,4.69,-999.0,yes,yes,no,300234065580640,BD2GI,AOML,DNR,North
2018-08-06T19:59:31Z,1533585571,2018,20,0,218.833,218.833,69.0862,-24.5238,1017.1,4.69,-999.0,yes,yes,no,300234065580640,BD2GI,AOML,DNR,North
2018-08-06T21:00:00Z,1533589200,2018,21,0,218.875,218.875,69.091,-24.514,1017.2,4.48,-999.0,yes,yes,no,300234065580640,BD2GI,AOML,DNR,North
2018-08-06T22:00:28Z,1533592829,2018,22,0,218.917,218.917,69.0966,-24.4992,1017.4,4.52,-999.0,yes,yes,no,300234065580640,BD2GI,AOML,DNR,North
2018-08-06T22:59:31Z,1533596371,2018,23,0,218.958,218.958,69.0996,-24.4858,1017.4,4.62,-999.0,yes,yes,no,300234065580640,BD2GI,AOML,DNR,North
2018-08-07T00:00:00Z,1533600000,2018,0,0,219.0,219.0,69.103,-24.4758,1017.4,4.69,-999.0,yes,yes,no,300234065580640,BD2GI,AOML,DNR,North
2018-08-07T01:00:28Z,1533603629,2018,1,0,219.042,219.042,69.1078,-24.4644,1017.3,4.66,-999.0,yes,yes,no,300234065580640,BD2GI,AOML,DNR,North
2018-08-07T01:59:31Z,1533607171,2018,2,0,219.083,219.083,69.113,-24.4532,1016.9,4.62,-999.0,yes,yes,no,300234065580640,BD2GI,AOML,DNR,North
2018-08-07T03:00:00Z,1533610800,2018,3,0,219.125,219.125,69.119,-24.4474,1016.4,4.59,-999.0,yes,yes,no,300234065580640,BD2GI,AOML,DNR,North
2018-08-07T04:00:28Z,1533614429,2018,4,0,219.167,219.167,69.1276,-24.4438,1016.4,4.55,-999.0,yes,yes,no,300234065580640,BD2GI,AOML,DNR,North
2018-08-07T04:59:31Z,1533617971,2018,5,0,219.208,219.208,69.1388,-24.44,1016.2,4.59,-999.0,yes,yes,no,300234065580640,BD2GI,AOML,DNR,North
2018-08-07T06:00:00Z,1533621600,2018,6,0,219.25,219.25,69.152,-24.4354,1016.1,4.66,-999.0,yes,yes,no,300234065580640,BD2GI,AOML,DNR,North
2018-08-07T07:00:28Z,1533625229,2018,7,0,219.292,219.292,69.164,-24.4294,1016.1,4.62,-999.0,yes,yes,no,300234065580640,BD2GI,AOML,DNR,North
2018-08-07T07:59:31Z,1533628771,2018,8,0,219.333,219.333,69.1742,-24.4226,1015.9,4.62,-999.0,yes,yes,no,300234065580640,BD2GI,AOML,DNR,North
2018-08-07T09:00:00Z,1533632400,2018,9,0,219.375,219.375,69.1824,-24.4196,1015.9,4.62,-999.0,yes,yes,no,300234065580640,BD2GI,AOML,DNR,North
2018-08-07T10:00:28Z,1533636029,2018,10,0,219.417,219.417,69.1874,-24.418,1015.6,4.66,-999.0,yes,yes,no,300234065580640,BD2GI,AOML,DNR,North
2018-08-07T10:59:31Z,1533639571,2018,11,0,219.458,219.458,69.1906,-24.4228,1015.4,4.52,-999.0,yes,yes,no,300234065580640,BD2GI,AOML,DNR,North
2018-08-07T12:00:00Z,1533643200,2018,12,0,219.5,219.5,69.1924,-24.4346,1015.1,4.89,-999.0,yes,yes,no,300234065580640,BD2GI,AOML,DNR,North
2018-08-07T13:00:28Z,1533646829,2018,13,0,219.542,219.542,69.1938,-24.4502,1014.7,4.96,-999.0,yes,yes,no,300234065580640,BD2GI,AOML,DNR,North
2018-08-07T13:59:31Z,1533650371,2018,14,0,219.583,219.583,69.1952,-24.4654,1014.1,4.83,-999.0,yes,yes,no,300234065580640,BD2GI,AOML,DNR,North
2018-08-07T15:00:00Z,1533654000,2018,15,0,219.625,219.625,69.1966,-24.4824,1013.5,5.03,-999.0,yes,yes,no,300234065580640,BD2GI,AOML,DNR,North
2018-08-07T16:00:28Z,1533657629,2018,16,0,219.667,219.667,69.199,-24.4974,1012.8,5.03,-999.0,yes,yes,no,300234065580640,BD2GI,AOML,DNR,North
2018-08-07T16:59:31Z,1533661171,2018,17,0,219.708,219.708,69.2018,-24.5116,1012.2,4.89,-999.0,yes,yes,no,300234065580640,BD2GI,AOML,DNR,North
2018-08-07T18:00:00Z,1533664800,2018,18,0,219.75,219.75,69.205,-24.5274,1011.9,4.86,-999.0,yes,yes,no,300234065580640,BD2GI,AOML,DNR,North
2018-08-07T19:00:28Z,1533668429,2018,19,0,219.792,219.792,69.2076,-24.5412,1011.5,4.59,-999.0,yes,yes,no,300234065580640,BD2GI,AOML,DNR,North
2018-08-07T19:59:31Z,1533671971,2018,20,0,219.833,219.833,69.2074,-24.556,1011.1,5.24,-999.0,yes,yes,no,300234065580640,BD2GI,AOML,DNR,North
2018-08-07T21:00:00Z,1533675600,2018,21,0,219.875,219.875,69.2062,-24.5714,1010.4,5.27,-999.0,yes,yes,no,300234065580640,BD2GI,AOML,DNR,North
2018-08-07T22:00:28Z,1533679229,2018,22,0,219.917,219.917,69.2032,-24.5892,1009.9,5.24,-999.0,yes,yes,no,300234065580640,BD2GI,AOML,DNR,North
2018-08-07T22:59:31Z,1533682771,2018,23,0,219.958,219.958,69.1986,-24.609,1009.3,5.24,-999.0,yes,yes,no,300234065580640,BD2GI,AOML,DNR,North
2018-08-08T00:00:00Z,1533686400,2018,0,0,220.0,220.0,69.1934,-24.6256,1009.0,5.1,-999.0,yes,yes,no,300234065580640,BD2GI,AOML,DNR,North
2018-08-08T01:00:28Z,1533690029,2018,1,0,220.042,220.042,69.1888,-24.6442,1008.7,5.03,-999.0,yes,yes,no,300234065580640,BD2GI,AOML,DNR,North
2018-08-08T01:59:31Z,1533693571,2018,2,0,220.083,220.083,69.187,-24.661,1008.2,5.0,-999.0,yes,yes,no,300234065580640,BD2GI,AOML,DNR,North
2018-08-08T03:00:00Z,1533697200,2018,3,0,220.125,220.125,69.1862,-24.6722,1007.9,4.86,-999.0,yes,yes,no,300234065580640,BD2GI,AOML,DNR,North
2018-08-08T04:00:28Z,1533700829,2018,4,0,220.167,220.167,69.1856,-24.6694,1007.5,4.89,-999.0,yes,yes,no,300234065580640,BD2GI,AOML,DNR,North
2018-08-08T04:59:31Z,1533704371,2018,5,0,220.208,220.208,69.184,-24.6622,1007.1,4.83,-999.0,yes,yes,no,300234065580640,BD2GI,AOML,DNR,North
2018-08-08T06:00:00Z,1533708000,2018,6,0,220.25,220.25,69.1818,-24.6538,1006.8,4.86,-999.0,yes,yes,no,300234065580640,BD2GI,AOML,DNR,North
2018-08-08T07:00:28Z,1533711629,2018,7,0,220.292,220.292,69.1786,-24.6472,1006.6,4.96,-999.0,yes,yes,no,300234065580640,BD2GI,AOML,DNR,North
2018-08-08T07:59:31Z,1533715171,2018,8,0,220.333,220.333,69.1768,-24.6458,1006.6,5.03,-999.0,yes,yes,no,300234065580640,BD2GI,AOML,DNR,North
2018-08-08T09:00:00Z,1533718800,2018,9,0,220.375,220.375,69.1756,-24.6492,1006.5,5.1,-999.0,yes,yes,no,300234065580640,BD2GI,AOML,DNR,North
2018-08-08T10:00:28Z,1533722429,2018,10,0,220.417,220.417,69.1744,-24.653,1006.3,5.27,-999.0,yes,yes,no,300234065580640,BD2GI,AOML,DNR,North
2018-08-08T10:59:31Z,1533725971,2018,11,0,220.458,220.458,69.1722,-24.656,1005.9,5.44,-999.0,yes,yes,no,300234065580640,BD2GI,AOML,DNR,North
2018-08-08T12:00:00Z,1533729600,2018,12,0,220.5,220.5,69.1714,-24.6632,1005.6,5.65,-999.0,yes,yes,no,300234065580640,BD2GI,AOML,DNR,North
2018-08-08T13:00:28Z,1533733229,2018,13,0,220.542,220.542,69.1678,-24.6658,1005.5,5.82,-999.0,yes,yes,no,300234065580640,BD2GI,AOML,DNR,North
2018-08-08T13:59:31Z,1533736771,2018,14,0,220.583,220.583,69.1624,-24.6678,1005.2,6.13,-999.0,yes,yes,no,300234065580640,BD2GI,AOML,DNR,North
2018-08-08T15:00:00Z,1533740400,2018,15,0,220.625,220.625,69.1568,-24.6672,1004.9,6.19,-999.0,yes,yes,no,300234065580640,BD2GI,AOML,DNR,North
2018-08-08T16:00:28Z,1533744029,2018,16,0,220.667,220.667,69.1522,-24.6652,1004.7,6.37,-999.0,yes,yes,no,300234065580640,BD2GI,AOML,DNR,North
2018-08-08T16:59:31Z,1533747571,2018,17,0,220.708,220.708,69.1488,-24.6616,1004.6,6.47,-999.0,yes,yes,no,300234065580640,BD2GI,AOML,DNR,North
2018-08-08T18:00:00Z,1533751200,2018,18,0,220.75,220.75,69.1454,-24.655,1004.5,6.47,-999.0,yes,yes,no,300234065580640,BD2GI,AOML,DNR,North
2018-08-08T19:00:28Z,1533754829,2018,19,0,220.792,220.792,69.1434,-24.6566,1004.1,6.64,-999.0,yes,yes,no,300234065580640,BD2GI,AOML,DNR,North
2018-08-08T19:59:31Z,1533758371,2018,20,0,220.833,220.833,69.145,-24.6614,1004.3,6.3,-999.0,yes,yes,no,300234065580640,BD2GI,AOML,DNR,North
2018-08-08T21:00:00Z,1533762000,2018,21,0,220.875,220.875,69.1488,-24.6624,1004.4,6.19,-999.0,yes,yes,no,300234065580640,BD2GI,AOML,DNR,North
2018-08-08T22:00:28Z,1533765629,2018,22,0,220.917,220.917,69.1538,-24.6614,1004.4,6.3,-999.0,yes,yes,no,300234065580640,BD2GI,AOML,DNR,North
2018-08-08T22:59:31Z,1533769171,2018,23,0,220.958,220.958,69.1586,-24.6566,1004.4,6.16,-999.0,yes,yes,no,300234065580640,BD2GI,AOML,DNR,North
2018-08-09T00:00:00Z,1533772800,2018,0,0,221.0,221.0,69.162,-24.6544,1004.4,6.02,-999.0,yes,yes,no,300234065580640,BD2GI,AOML,DNR,North
2018-08-09T01:00:28Z,1533776429,2018,1,0,221.042,221.042,69.1624,-24.6534,1004.5,5.92,-999.0,yes,yes,no,300234065580640,BD2GI,AOML,DNR,North
2018-08-09T01:59:31Z,1533779971,2018,2,0,221.083,221.083,69.1598,-24.671,1004.3,5.78,-999.0,yes,yes,no,300234065580640,BD2GI,AOML,DNR,North
2018-08-09T03:00:00Z,1533783600,2018,3,0,221.125,221.125,69.1622,-24.6658,1004.2,5.72,-999.0,yes,yes,no,300234065580640,BD2GI,AOML,DNR,North
2018-08-09T04:00:28Z,1533787229,2018,4,0,221.167,221.167,69.1632,-24.673,1003.9,5.68,-999.0,yes,yes,no,300234065580640,BD2GI,AOML,DNR,North
2018-08-09T04:59:31Z,1533790771,2018,5,0,221.208,221.208,69.1652,-24.6778,1003.9,5.48,-999.0,yes,yes,no,300234065580640,BD2GI,AOML,DNR,North
2018-08-09T06:00:00Z,1533794400,2018,6,0,221.25,221.25,69.1662,-24.6784,1003.8,5.41,-999.0,yes,yes,no,300234065580640,BD2GI,AOML,DNR,North
2018-08-09T07:00:28Z,1533798029,2018,7,0,221.292,221.292,69.167,-24.6788,1003.8,5.31,-999.0,yes,yes,no,300234065580640,BD2GI,AOML,DNR,North
2018-08-09T07:59:31Z,1533801571,2018,8,0,221.333,221.333,69.1686,-24.677,1004.1,5.37,-999.0,yes,yes,no,300234065580640,BD2GI,AOML,DNR,North
2018-08-09T09:00:00Z,1533805200,2018,9,0,221.375,221.375,69.1688,-24.6766,1004.1,5.44,-999.0,yes,yes,no,300234065580640,BD2GI,AOML,DNR,North
2018-08-09T10:00:28Z,1533808829,2018,10,0,221.417,221.417,69.1664,-24.6794,1004.0,5.48,-999.0,yes,yes,no,300234065580640,BD2GI,AOML,DNR,North
2018-08-09T10:59:31Z,1533812371,2018,11,0,221.458,221.458,69.1616,-24.6846,1004.1,5.54,-999.0,yes,yes,no,300234065580640,BD2GI,AOML,DNR,North
2018-08-09T12:00:00Z,1533816000,2018,12,0,221.5,221.5,69.1536,-24.6942,1004.1,5.54,-999.0,yes,yes,no,300234065580640,BD2GI,AOML,DNR,North
2018-08-09T13:00:28Z,1533819629,2018,13,0,221.542,221.542,69.1466,-24.7076,1004.2,5.51,-999.0,yes,yes,no,300234065580640,BD2GI,AOML,DNR,North
2018-08-09T13:59:31Z,1533823171,2018,14,0,221.583,221.583,69.139,-24.718,1004.2,5.41,-999.0,yes,yes,no,300234065580640,BD2GI,AOML,DNR,North
2018-08-09T15:00:00Z,1533826800,2018,15,0,221.625,221.625,69.1314,-24.725,1004.3,5.31,-999.0,yes,yes,no,300234065580640,BD2GI,AOML,DNR,North
2018-08-09T16:00:28Z,1533830429,2018,16,0,221.667,221.667,69.124,-24.7262,1004.2,5.0,-999.0,yes,yes,no,300234065580640,BD2GI,AOML,DNR,North
2018-08-09T16:59:31Z,1533833971,2018,17,0,221.708,221.708,69.1156,-24.7234,1004.2,4.93,-999.0,yes,yes,no,300234065580640,BD2GI,AOML,DNR,North
2018-08-09T18:00:00Z,1533837600,2018,18,0,221.75,221.75,69.1082,-24.7244,1004.4,5.0,-999.0,yes,yes,no,300234065580640,BD2GI,AOML,DNR,North
2018-08-09T19:00:28Z,1533841229,2018,19,0,221.792,221.792,69.1048,-24.724,1004.4,4.89,-999.0,yes,yes,no,300234065580640,BD2GI,AOML,DNR,North
2018-08-09T19:59:31Z,1533844771,2018,20,0,221.833,221.833,69.1032,-24.711,1004.7,4.93,-999.0,yes,yes,no,300234065580640,BD2GI,AOML,DNR,North
2018-08-09T21:00:00Z,1533848400,2018,21,0,221.875,221.875,69.1,-24.6958,1005.1,4.93,-999.0,yes,yes,no,300234065580640,BD2GI,AOML,DNR,North
2018-08-09T22:00:28Z,1533852029,2018,22,0,221.917,221.917,69.0974,-24.683,1005.2,4.93,-999.0,yes,yes,no,300234065580640,BD2GI,AOML,DNR,North
2018-08-09T22:59:31Z,1533855571,2018,23,0,221.958,221.958,69.0946,-24.6686,1005.5,5.0,-999.0,yes,yes,no,300234065580640,BD2GI,AOML,DNR,North
2018-08-10T00:00:00Z,1533859200,2018,0,0,222.0,222.0,69.0928,-24.6554,1005.9,5.03,-999.0,yes,yes,no,300234065580640,BD2GI,AOML,DNR,North
2018-08-10T01:00:28Z,1533862829,2018,1,0,222.042,222.042,69.0898,-24.6408,1006.1,5.07,-999.0,yes,yes,no,300234065580640,BD2GI,AOML,DNR,North
2018-08-10T01:59:31Z,1533866371,2018,2,0,222.083,222.083,69.0874,-24.6276,1006.5,5.03,-999.0,yes,yes,no,300234065580640,BD2GI,AOML,DNR,North
2018-08-10T03:00:00Z,1533870000,2018,3,0,222.125,222.125,69.0872,-24.616,1006.6,5.03,-999.0,yes,yes,no,300234065580640,BD2GI,AOML,DNR,North
2018-08-10T04:00:28Z,1533873629,2018,4,0,222.167,222.167,69.0888,-24.5986,1006.8,4.89,-999.0,yes,yes,no,300234065580640,BD2GI,AOML,DNR,North
2018-08-10T04:59:31Z,1533877171,2018,5,0,222.208,222.208,69.0912,-24.5724,1007.3,4.93,-999.0,yes,yes,no,300234065580640,BD2GI,AOML,DNR,North
2018-08-10T06:00:00Z,1533880800,2018,6,0,222.25,222.25,69.0942,-24.5434,1007.8,5.07,-999.0,yes,yes,no,300234065580640,BD2GI,AOML,DNR,North
2018-08-10T07:00:28Z,1533884429,2018,7,0,222.292,222.292,69.098,-24.5126,1008.5,5.07,-999.0,yes,yes,no,300234065580640,BD2GI,AOML,DNR,North
2018-08-10T07:59:31Z,1533887971,2018,8,0,222.333,222.333,69.1022,-24.4854,1009.1,5.07,-999.0,yes,yes,no,300234065580640,BD2GI,AOML,DNR,North
2018-08-10T09:00:00Z,1533891600,2018,9,0,222.375,222.375,69.108,-24.4642,1009.7,5.03,-999.0,yes,yes,no,300234065580640,BD2GI,AOML,DNR,North
2018-08-10T10:00:28Z,1533895229,2018,10,0,222.417,222.417,69.116,-24.4402,1010.2,5.03,-999.0,yes,yes,no,300234065580640,BD2GI,AOML,DNR,North
2018-08-10T10:59:31Z,1533898771,2018,11,0,222.458,222.458,69.1216,-24.4232,1010.5,5.03,-999.0,yes,yes,no,300234065580640,BD2GI,AOML,DNR,North
2018-08-10T12:00:00Z,1533902400,2018,12,0,222.5,222.5,69.126,-24.4076,1010.8,5.03,-999.0,yes,yes,no,300234065580640,BD2GI,AOML,DNR,North
2018-08-10T13:00:28Z,1533906029,2018,13,0,222.542,222.542,69.1278,-24.396,1011.3,5.03,-999.0,yes,yes,no,300234065580640,BD2GI,AOML,DNR,North
2018-08-10T13:59:31Z,1533909571,2018,14,0,222.583,222.583,69.1272,-24.386,1011.5,5.03,-999.0,yes,yes,no,300234065580640,BD2GI,AOML,DNR,North
2018-08-10T15:00:00Z,1533913200,2018,15,0,222.625,222.625,69.1228,-24.382,1011.7,5.0,-999.0,yes,yes,no,300234065580640,BD2GI,AOML,DNR,North
2018-08-10T16:00:28Z,1533916829,2018,16,0,222.667,222.667,69.1164,-24.3864,1011.6,5.03,-999.0,yes,yes,no,300234065580640,BD2GI,AOML,DNR,North
2018-08-10T16:59:31Z,1533920371,2018,17,0,222.708,222.708,69.1116,-24.393,1011.6,5.17,-999.0,yes,yes,no,300234065580640,BD2GI,AOML,DNR,North
2018-08-10T18:00:00Z,1533924000,2018,18,0,222.75,222.75,69.1086,-24.3938,1011.5,5.27,-999.0,yes,yes,no,300234065580640,BD2GI,AOML,DNR,North
2018-08-10T19:00:28Z,1533927629,2018,19,0,222.792,222.792,69.1084,-24.3884,1011.5,5.31,-999.0,yes,yes,no,300234065580640,BD2GI,AOML,DNR,North
2018-08-10T19:59:31Z,1533931171,2018,20,0,222.833,222.833,69.1094,-24.3764,1011.6,5.31,-999.0,yes,yes,no,300234065580640,BD2GI,AOML,DNR,North
2018-08-10T21:00:00Z,1533934800,2018,21,0,222.875,222.875,69.1106,-24.3688,1011.9,5.27,-999.0,yes,yes,no,300234065580640,BD2GI,AOML,DNR,North